Regional Weather Roundup
Issued by NWS Sterling, VA

Home | Current Version | Previous Version | Text Only | Print | Product List | Glossary Off
Versions: 1 2 3 4 5 6 7 8 9 10 11 12 13 14 15 16 17 18 19 20 21 22 23 24 25 26 27 28 29 30 31 32 33 34 35 36 37 38 39 40 41 42 43 44 45 46 47 48 49 50

000
ASUS41 KLWX 241110
RWRLWX

REGIONAL WEATHER ROUNDUP
NATIONAL WEATHER SERVICE BALTIMORE MD/WASHINGTON DC
700 AM EDT TUE MAY 24 2016

Note: "FAIR" indicates few or no clouds below 12,000 feet
with no significant weather and/or obstructions to visibility.
 TC=TEMPERATURE CELSIUS

 * =Non NWS site. Station does not report precipitation (e.g. rain,
    snow, etc.), thunder, or fog.

DCZ001-MDZ009-015-VAZ040>042-051-053>054-241200-
WASHINGTON METRO

CITY           SKY/WX    TMP DP  RH WIND       PRES   REMARKS
WASHINGTON NAT FAIR      61  54  77 W8        29.96R
DULLES         FAIR      56  53  90 CALM      29.98R
ANDREWS AFB    SUNNY     59  55  86 W8        29.95R
FT BELVOIR     FAIR      56  55  95 W5        29.97R
QUANTICO       FAIR      58  55  90 CALM      29.99R
LEESBURG*      FAIR      61  55  82 W10       29.99R
MANASSAS*      SUNNY     54  54 100 CALM      29.99R

$$

MDZ006>007-011-014-241200-
BALTIMORE METRO

CITY           SKY/WX    TMP DP  RH WIND       PRES   REMARKS
BWI AIRPORT    PTSUNNY   58  53  84 W9        29.93R
MD SCIENCE CTR   N/A     61  52  72 MISG      29.95R
MARTIN STATE   PTSUNNY   61  57  88 CALM      29.94R
ANNAPOLIS      SUNNY     59  54  83 W5        29.93R
FORT MEADE*    SUNNY     54  52  94 W3        29.97R

$$

MDZ012-015-019>023-241200-
MARYLAND EASTERN SHORE

CITY           SKY/WX    TMP DP  RH WIND       PRES   REMARKS
OCEAN CITY     CLOUDY    57  55  93 SW6       29.94R
SALISBURY      MOSUNNY   56  55  97 E5        29.94R
CAMBRIDGE*       N/A     55  54  94 SW3       29.94R
EASTON*        PTSUNNY   57  57 100 SW3       29.97R

$$

MDZ017>025-241200-
SOUTHERN MARYLAND

CITY           SKY/WX    TMP DP  RH WIND       PRES   REMARKS
PATUXENT RIVER MOSUNNY   58  55  90 W9        29.95R
ST INIGOES     PTSUNNY   60  57  89 W5        29.96R
LEONARDTOWN*   SUNNY     55  54  94 W6        29.97R

$$

MDZ003>005-241200-
NORTH CENTRAL MARYLAND

CITY           SKY/WX    TMP DP  RH WIND       PRES   REMARKS
FREDERICK*     SUNNY     57  55  94 SW5       30.00R
HAGERSTOWN APT MOSUNNY   54  51  90 SE6       30.00R
WESTMINSTER*   SUNNY     55  52  88 CALM      29.97R

$$

MDZ501>502-241200-
WESTERN MARYLAND

CITY           SKY/WX    TMP DP  RH WIND       PRES   REMARKS
OAKLAND*       NOT AVBL
CUMBERLAND*    SUNNY     52  52 100 CALM      30.08R

$$

VAZ025>031-241200-
SHENANDOAH VALLEY

CITY           SKY/WX    TMP DP  RH WIND       PRES   REMARKS
WINCHESTER*    FAIR      54  52  94 CALM      30.01R
FRONT ROYAL*   FAIR      55  54  94 S6        30.01R
LURAY*         FAIR      54  54 100 CALM      30.04R
NEW MARKET*    FAIR      53  53  99 CALM      30.04R
STAUNTON*      FAIR      56  56 100 CALM      30.08R
WAYNESBORO*    CLOUDY    52  51  96 CALM      30.06R

$$

WVZ021-048>050-054>055-241200-
EASTERN WEST VIRGINIA PANHANDLE

CITY           SKY/WX    TMP DP  RH WIND       PRES   REMARKS
MARTINSBURG    FAIR      49  48  97 CALM      30.00R FOG
PETERSBURG*    FAIR      51  51  99 CALM      30.07R FOG

$$

VAZ036>039-050-241200-
CENTRAL FOOTHILLS

CITY           SKY/WX    TMP DP  RH WIND       PRES   REMARKS
CHARLOTTESVILL PTSUNNY   60  55  83 S3        30.01R
CULPEPER*      FAIR      54  54 100 CALM      30.00R
ORANGE*        FAIR      54  54 100 CALM      30.02R
GORDONSVILLE*  FAIR      53  53 100 CALM      30.00R
WARRENTON*     FAIR      55  51  86 CALM      29.99R

$$

VAZ055>057-241200-
NORTH AND CENTRAL PIEDMONT

CITY           SKY/WX    TMP DP  RH WIND       PRES   REMARKS
FREDERICKSBRG* FAIR      57  57 100 W3        29.98R
STAFFORD*      FAIR      55  54  95 CALM      30.02R

$$

NCZ024-NYZ072-PAZ021-071-VAZ022-071-241200-
OTHER REGIONAL OBSERVATIONS

CITY           SKY/WX    TMP DP  RH WIND       PRES   REMARKS
NEW YORK CITY  LGT RAIN  59  56  89 W5        29.92R FOG
PHILADELPHIA   CLOUDY    59  56  89 CALM      29.92S
PITTSBURGH     MOSUNNY   52  47  83 CALM      30.06R
ROANOKE        FAIR      54  50  86 NW3       30.11R
RICHMOND       PTSUNNY   56  54  93 W5        30.00R
RALEIGH        CLEAR     52  51  97 SW5       30.08R

$$

ANZ530>537-241200-
MARINE OBSERVATIONS

STATION/POSITION TIME  TEMP    WIND        PRES
                       AIR SEA DIR/SP/G
                 (UTC) (F)     (DEG/KT/KT) (MB)
THOMAS PT LIGHT  1100   60 61  280/ 16/ 18 1014.8R
BALT KEY BRIDGE  1000   60     250/  7/  8 1013.0R
COVE POINT       1000   58     280/ 12/ 14 1014.0F
LEWISETTA        1000   59 63  240/  7/  8 1013.7R
SOLOMONS ISLAND  1000   59 62  270/  3/  5   N/A
PINEY POINT      1000          300/  5/  6   N/A

$$




USA.gov is the U.S. government's official web portal to all federal, state and local government web resources and services.